Tracking 29033 objects as of 22-Jun-2024
HD Live streaming from Space Station
objects crossing your sky now

STARLINK-6320

Track STARLINK-6320 now!
10-day predictions
STARLINK-6320 is classified as:


NORAD ID: 57336
Int'l Code: 2023-099J
Perigee: 565.3 km
Apogee: 567.2 km
Inclination: 43.0 °
Period: 95.8 minutes
Semi major axis: 6937 km
RCS: Unknown
Launch date: July 16, 2023
Source: United States (US)
Launch site: AIR FORCE EASTERN TEST RANGE (AFETR)
Your satellite tracking list
Your tracking list is empty




NASA's NSSDC Master Catalog

Two Line Element Set (TLE):
1 57336U 23099J   24174.08503568 -.00002007  00000-0 -13357-3 0  9993
2 57336  43.0057  47.9529 0001388 270.3949  89.6734 15.02529433 52755
Source of the keplerian elements: AFSPC